Total_Precipitation_Accumulation
0.52 0.54 0.52 0.50 0.46 0.47 0.58 0.67 1.03 1.42 1.87 2.26 2.42 2.40 2.41 2.22 1.94 1.64 1.53 1.60 1.59 1.55 1.54 1.47 1.44 1.55 1.51 1.39 1.31 1.51 1.49 1.44 1.34 1.24 1.24 1.28 1.26 1.21 1.15 1.11 1.06 1.12 1.16 1.10
0.51 0.41 0.47 0.53 0.54 0.59 0.70 0.78 1.00 1.48 2.09 2.41 2.49 2.44 2.42 2.27 2.08 1.97 1.87 1.80 1.77 1.70 1.70 1.70 1.62 1.62 1.58 1.51 1.46 1.57 1.63 1.70 1.69 1.55 1.48 1.44 1.32 1.20 1.19 1.18 1.11 1.03 0.99 0.98
0.82 0.48 0.70 1.11 0.86 0.80 0.93 1.00 1.23 1.84 2.16 2.10 2.16 2.30 2.47 2.53 2.38 2.25 2.18 2.06 2.02 1.96 1.90 1.90 1.86 1.78 1.73 1.65 1.60 1.62 1.67 1.71 1.71 1.66 1.60 1.54 1.36 1.23 1.24 1.24 1.21 1.17 1.05 1.00
0.92 1.00 1.65 1.52 0.85 0.83 1.04 1.21 1.33 1.59 1.69 1.74 1.79 1.91 2.01 2.13 2.22 2.24 2.11 2.03 2.04 2.10 2.05 2.02 1.89 1.79 1.71 1.65 1.66 1.71 1.72 1.70 1.65 1.54 1.51 1.44 1.34 1.31 1.29 1.24 1.20 1.14 1.07 0.99
1.05 1.40 1.63 1.44 0.91 0.89 1.34 1.89 1.57 1.49 1.38 1.30 1.26 1.43 1.82 1.94 2.00 2.18 2.22 2.14 2.11 2.07 1.98 1.95 1.91 1.80 1.72 1.71 1.71 1.72 1.70 1.60 1.50 1.40 1.38 1.31 1.28 1.21 1.16 1.13 1.11 1.03 0.92 0.88
1.16 1.65 1.99 1.86 0.98 0.78 1.29 2.41 1.86 1.58 1.42 1.28 1.39 1.79 1.89 1.74 1.75 1.81 1.89 1.95 1.87 1.71 1.61 1.74 1.84 1.79 1.72 1.68 1.66 1.65 1.46 1.27 1.19 1.19 1.19 1.13 1.07 1.03 1.00 1.00 0.99 0.90 0.79 0.81
1.31 1.79 2.03 1.20 0.71 0.89 1.98 2.47 1.90 1.56 1.40 1.33 1.59 1.77 1.52 1.39 1.45 1.47 1.50 1.47 1.42 1.37 1.42 1.52 1.58 1.58 1.60 1.53 1.51 1.42 1.30 1.20 1.14 1.08 1.02 0.99 0.98 0.99 0.94 0.89 0.92 0.93 0.90 0.84
1.43 1.93 2.09 0.99 0.80 1.33 1.65 1.35 1.31 1.24 1.16 1.14 1.12 1.05 1.08 1.12 1.15 1.11 1.12 1.12 1.09 1.16 1.25 1.29 1.24 1.25 1.36 1.38 1.30 1.21 1.21 1.17 1.18 1.08 0.91 0.90 1.03 0.99 0.96 0.97 0.98 0.93 0.89 0.82
1.45 1.78 1.50 0.90 0.82 0.90 0.95 0.99 0.93 0.92 0.86 0.78 0.75 0.68 0.77 0.81 0.85 0.85 0.86 0.92 0.94 0.95 1.01 1.11 1.15 1.16 1.22 1.21 1.11 1.12 1.21 1.19 1.09 0.98 1.01 0.99 1.02 0.99 0.93 0.92 0.85 0.76 0.73 0.72
1.11 1.19 0.99 0.82 0.75 0.69 0.63 0.65 0.63 0.68 0.75 0.67 0.64 0.67 0.72 0.71 0.70 0.69 0.73 0.78 0.86 0.90 0.89 0.95 0.96 0.99 1.07 1.01 1.01 1.16 1.29 1.24 1.11 1.00 0.95 0.95 0.95 0.87 0.81 0.78 0.75 0.71 0.67 0.64
1.06 1.06 0.99 0.94 0.72 0.62 0.52 0.46 0.46 0.50 0.57 0.58 0.59 0.60 0.60 0.61 0.65 0.69 0.72 0.79 0.85 0.90 0.91 0.84 0.81 0.83 0.81 0.84 0.98 1.22 1.21 1.10 0.98 0.84 0.79 0.81 0.77 0.70 0.65 0.62 0.57 0.56 0.54 0.52
1.07 0.94 0.98 1.00 0.76 0.61 0.56 0.52 0.48 0.44 0.45 0.52 0.58 0.63 0.61 0.59 0.62 0.66 0.69 0.72 0.83 0.82 0.79 0.79 0.83 0.83 0.76 0.75 0.87 1.08 1.10 0.92 0.77 0.68 0.61 0.54 0.54 0.56 0.48 0.44 0.42 0.39 0.40 0.40
0.73 0.65 0.67 0.63 0.53 0.49 0.48 0.48 0.46 0.44 0.44 0.52 0.57 0.58 0.59 0.59 0.60 0.67 0.73 0.73 0.75 0.76 0.75 0.72 0.74 0.77 0.76 0.71 0.74 0.84 0.89 0.72 0.59 0.54 0.53 0.50 0.49 0.57 0.59 0.44 0.35 0.32 0.35 0.36
0.50 0.54 0.58 0.58 0.58 0.52 0.48 0.49 0.49 0.46 0.46 0.52 0.58 0.56 0.56 0.58 0.61 0.61 0.65 0.63 0.53 0.51 0.57 0.59 0.59 0.59 0.53 0.51 0.62 0.65 0.60 0.49 0.43 0.47 0.46 0.42 0.41 0.45 0.51 0.56 0.54 0.45 0.39 0.37
0.46 0.45 0.52 0.58 0.62 0.56 0.53 0.53 0.55 0.56 0.51 0.50 0.49 0.48 0.48 0.49 0.50 0.50 0.48 0.45 0.45 0.48 0.49 0.47 0.51 0.52 0.41 0.38 0.45 0.46 0.43 0.42 0.38 0.37 0.35 0.32 0.31 0.33 0.35 0.43 0.53 0.54 0.47 0.41
0.46 0.44 0.48 0.55 0.63 0.62 0.58 0.60 0.65 0.62 0.53 0.48 0.45 0.47 0.46 0.42 0.38 0.36 0.37 0.38 0.44 0.48 0.45 0.45 0.47 0.39 0.33 0.35 0.40 0.41 0.36 0.33 0.35 0.33 0.34 0.33 0.32 0.33 0.35 0.39 0.44 0.49 0.48 0.42
0.56 0.58 0.55 0.54 0.54 0.54 0.51 0.48 0.52 0.55 0.49 0.45 0.39 0.38 0.36 0.33 0.33 0.37 0.40 0.38 0.41 0.41 0.39 0.41 0.40 0.29 0.24 0.27 0.30 0.31 0.27 0.26 0.28 0.28 0.32 0.33 0.34 0.36 0.37 0.37 0.42 0.47 0.44 0.42
0.57 0.58 0.55 0.53 0.51 0.46 0.41 0.40 0.39 0.41 0.43 0.40 0.34 0.32 0.31 0.32 0.34 0.35 0.36 0.33 0.33 0.37 0.36 0.31 0.29 0.26 0.22 0.20 0.24 0.27 0.27 0.27 0.26 0.27 0.28 0.30 0.32 0.37 0.42 0.44 0.45 0.48 0.50 0.46
0.45 0.43 0.42 0.42 0.42 0.39 0.36 0.38 0.35 0.35 0.37 0.38 0.32 0.31 0.32 0.32 0.30 0.32 0.33 0.36 0.38 0.41 0.35 0.29 0.25 0.24 0.26 0.22 0.23 0.27 0.27 0.26 0.26 0.27 0.25 0.25 0.28 0.31 0.35 0.40 0.43 0.49 0.52 0.49
0.36 0.37 0.37 0.37 0.37 0.36 0.37 0.35 0.31 0.33 0.35 0.37 0.35 0.33 0.32 0.29 0.29 0.30 0.34 0.38 0.39 0.36 0.32 0.29 0.25 0.25 0.26 0.22 0.21 0.22 0.24 0.26 0.27 0.29 0.28 0.27 0.29 0.30 0.33 0.35 0.37 0.43 0.48 0.47
0.36 0.36 0.38 0.38 0.39 0.39 0.35 0.30 0.28 0.30 0.33 0.36 0.37 0.34 0.31 0.29 0.28 0.31 0.36 0.38 0.33 0.30 0.30 0.28 0.27 0.23 0.22 0.21 0.19 0.20 0.23 0.25 0.29 0.30 0.31 0.31 0.29 0.28 0.30 0.32 0.34 0.40 0.45 0.43
0.39 0.40 0.41 0.39 0.40 0.41 0.36 0.30 0.28 0.29 0.34 0.38 0.35 0.32 0.33 0.35 0.33 0.32 0.32 0.34 0.32 0.30 0.28 0.26 0.23 0.22 0.21 0.18 0.15 0.15 0.18 0.23 0.27 0.30 0.33 0.32 0.29 0.28 0.31 0.34 0.35 0.36 0.37 0.37
0.45 0.44 0.47 0.48 0.50 0.49 0.40 0.32 0.30 0.29 0.33 0.38 0.39 0.40 0.43 0.45 0.39 0.34 0.33 0.28 0.28 0.27 0.25 0.23 0.22 0.21 0.19 0.15 0.13 0.14 0.15 0.17 0.20 0.26 0.30 0.32 0.32 0.32 0.31 0.35 0.37 0.38 0.36 0.36
0.53 0.51 0.50 0.55 0.60 0.55 0.52 0.43 0.36 0.32 0.33 0.36 0.42 0.48 0.49 0.44 0.35 0.30 0.32 0.33 0.32 0.26 0.23 0.21 0.20 0.18 0.16 0.14 0.14 0.16 0.18 0.18 0.20 0.26 0.28 0.28 0.28 0.31 0.33 0.36 0.40 0.40 0.38 0.38
0.52 0.54 0.52 0.57 0.65 0.59 0.53 0.47 0.41 0.37 0.39 0.42 0.43 0.44 0.42 0.37 0.34 0.30 0.26 0.26 0.27 0.22 0.20 0.19 0.18 0.17 0.15 0.15 0.16 0.18 0.20 0.21 0.23 0.25 0.25 0.26 0.24 0.25 0.28 0.35 0.42 0.44 0.43 0.42
0.58 0.65 0.65 0.64 0.62 0.57 0.51 0.46 0.46 0.49 0.52 0.52 0.48 0.44 0.39 0.35 0.34 0.32 0.25 0.22 0.22 0.21 0.19 0.19 0.18 0.18 0.18 0.19 0.21 0.21 0.22 0.22 0.22 0.22 0.23 0.25 0.26 0.28 0.30 0.36 0.40 0.42 0.41 0.37
0.66 0.67 0.68 0.66 0.58 0.52 0.52 0.48 0.48 0.51 0.56 0.58 0.54 0.45 0.40 0.37 0.35 0.32 0.25 0.22 0.22 0.20 0.18 0.19 0.18 0.19 0.20 0.21 0.23 0.22 0.22 0.25 0.28 0.29 0.28 0.29 0.30 0.33 0.36 0.39 0.41 0.42 0.39 0.33